カタログに戻る

KUIPER-00383

運用中通信LEO
NORAD 69268·PAYLOAD·🇺🇸 United States

打ち上げ May 29, 2026 から Vandenberg Space Force Base

Loading…

次のパス (今後24時間)

TLE

最新Source: CelesTrak SupGP

元期: Sep 15, 2026, 01:29 UTC

1 69268C 26118B   26258.06223380  .00002490  00000+0  32613-3 0  2586
2 69268  51.8989   0.7349 0000449  99.3995 196.8042 14.79912894    12

AllMySatでKUIPER-00383をリアルタイム追跡

Download on the App Store